Погода в Приуральском

Россия / Республика Коми     64°44′01″N   57°52′15″E
В апреле 2022 года жителям России запретили посещать сайт meteo.paraplan.net по решению Генеральной прокуратуры. Аудитория сайта уменьшилась в 10 раз. Владельцы сайта не видят смысла в поддержке погодного сервера в таких условиях. Сайт будет закрыт в октябре.
темп.,
°C
ветер,
м/с
пор.,
м/с
влажн.,
%
обл.,
%
осадки,
мм/ч
давл.,
гПа
погр.,
м
5 октября, ср
ср500:00+6юв3892100 0.2 1025279
03:00+7юв41097100 1.1 1024324
06:00+8ююв41291100 0.4 1023660
09:00+8ю41090100 0.7 1023581
12:00+8ю498396 0.1 1023500
15:00+8ююв41080100 0.1 1022483
18:00+8ююв41079100 0.0 1021449
21:00+7ю2885100 0.0 1021392
6 октября, чт
чт600:00+7ю4982100 0.1 1020872
03:00+6ююв4792100 0.6 1018854
06:00+5ююв4794100 0.2 1017864
09:00+5ююв3894100 0.8 1016671
12:00+6ю3892100 0.2 1015578
15:00+6ю3893100 0.6 1014485
18:00+5ю3794100 0.4 1013448
21:00+5ююв3792100 0.6 1012396
7 октября, пт
пт700:00+5ююв3792100 0.1 1010358
03:00+5ююв3890100 0.4 1008372
06:00+5ююв398882 0.3 1006400
09:00+6ююв41085100 0.3 1004480
12:00+6ю41084100 0.0 1002551
15:00+6ююв4108697 0.0 1001605
18:00+6ю4984100 0.0 1000777
21:00+6ююв4887100 0.2 999924
8 октября, сб
сб800:00+6ю3793100 1.1 998556
03:00+6ю3795100 1.6 998344
06:00+6юз2696100 0.6 999372
09:00+6з4792100 1.6 1001951
12:00+6з4893100 0.6 10021013
15:00+5зсз4893100 1.2 10041025
18:00+6зсз4989100 1.1 1005951
21:00+5з378982 1.3 1006437
9 октября, вс
вс900:00+4юз249674 0.0 1007108
03:00+2ю23965 0.0 100875
06:00+2ююв389748 0.0 1007212
09:00+4ююв41094100 0.0 1007425
12:00+5ю41195100 0.1 1006549
15:00+6ю41093100 0.2 1006550
18:00+6ю41188100 0.1 1005571
21:00+6ююз41191100 0.3 1004625